Edwards, CA

1:25 PM PST on December 07, 2016 (GMT -0800)
Edwards AFB North Base

Weather History for K9L2 - January, 2012

Change the Weather History Date:

Saturday, January 28, 2012

  Actual Average (KEDW) Record (KEDW)
Temperature  
Mean Temperature 45 °F -  
Max Temperature 64 °F 58 °F 66 °F (2003)
Min Temperature 26 °F 30 °F 23 °F (1999)
Degree Days  
Heating Degree Days 20    
Moisture  
Dew Point 2 °F    
Average Humidity 24    
Maximum Humidity 51    
Minimum Humidity 5    
Precipitation  
Precipitation 0.00 in - - ()
Sea Level Pressure  
Sea Level Pressure 30.38 in    
Wind  
Wind Speed 6 mph (NNE)    
Max Wind Speed 20 mph    
Max Gust Speed 25 mph    
Visibility 10 miles    
Events      
Averages and records for this station are not official NWS values.
T = Trace of Precipitation, MM = Missing Value Source: NWS Daily Summary

Daily Weather History Graph

Daily Weather History Graph

Search for Another Location

Airport or City:

Trip Planner

Search our weather history database for the weather conditions in past years. The results will help you decide how hot, cold, wet, or windy it might be!

Date:

Astronomy

Jan. 28, 2012 Rise Set
Actual Time 6:53 AM PST 5:15 PM PST
Civil Twilight 6:26 AM PST 5:42 PM PST
Nautical Twilight 5:55 AM PST 6:13 PM PST
Astronomical Twilight 5:26 AM PST 6:43 PM PST
Moon 9:33 AM PST (1/28) 10:51 PM PST (1/28)
Length of Visible Light 11h 16m
Length of Day
10h 22m
Waxing Crescent, 29% of the Moon is Illuminated
Jan 28
Waxing Crescent
Jan 30
First Quarter
Feb 7
Full
Feb 14
Last Quarter
Feb 21
New

Hourly Weather History & Observations

Time (PST) Temp. Windchill Dew Point Humidity Pressure Visibility Wind Dir Wind Speed Gust Speed Precip Events Conditions
12:55 AM 37.0 °F 31.0 °F 10.0 °F 33% 30.30 in 10.0 mi North 8.1 mph - N/A   Clear
1:55 AM 36.0 °F - 9.0 °F 33% 30.31 in 10.0 mi Calm Calm - N/A   Partly Cloudy
2:55 AM 37.0 °F - 9.0 °F 31% 30.32 in 10.0 mi Calm Calm - N/A   Partly Cloudy
3:55 AM 28.0 °F 21.7 °F 10.9 °F 49% 30.34 in 10.0 mi NNW 5.8 mph - N/A   Clear
4:08 AM - - - N/A% - - North - - N/A   Unknown
4:55 AM 26.1 °F 21.9 °F 10.0 °F 51% 30.35 in 10.0 mi South 3.5 mph - N/A   Unknown
5:55 AM 28.9 °F 21.1 °F 10.9 °F 47% 30.38 in 10.0 mi NW 8.1 mph - N/A   Unknown
6:55 AM 27.0 °F 19.5 °F 10.9 °F 51% 30.42 in 10.0 mi West 6.9 mph - N/A   Unknown
7:55 AM 36.0 °F 32.1 °F 12.9 °F 39% 30.43 in 10.0 mi NW 4.6 mph - N/A   Unknown
8:00 AM - - - N/A% - - North - - N/A   Unknown
8:55 AM 39.9 °F - 12.0 °F 32% 30.44 in 10.0 mi Calm Calm - N/A   Clear
9:55 AM 50.0 °F - 6.1 °F 17% 30.44 in 10.0 mi ENE 8.1 mph - N/A   Clear
10:55 AM 55.9 °F - 3.9 °F 12% 30.44 in 10.0 mi East 5.8 mph - N/A   Clear
11:55 AM 57.9 °F - 3.0 °F 11% 30.41 in 10.0 mi Variable 5.8 mph - N/A   Clear
12:55 PM 62.1 °F - -0.0 °F 8% 30.37 in 10.0 mi Variable 3.5 mph - N/A   Clear
2:55 PM 64.9 °F - -9.9 °F 5% 30.32 in 10.0 mi NE 19.6 mph 25.3 mph N/A   Clear
3:55 PM 63.0 °F - -7.1 °F 6% 30.34 in 10.0 mi ENE 13.8 mph - N/A   Clear
4:55 PM 59.0 °F - -6.0 °F 7% 30.36 in 10.0 mi ENE 9.2 mph - N/A   Clear
5:55 PM 51.1 °F - -11.9 °F 7% 30.38 in 10.0 mi NE 6.9 mph - N/A   Clear
6:55 PM 48.0 °F - -11.0 °F 8% 30.40 in 10.0 mi ENE 4.6 mph - N/A   Clear
7:55 PM 41.0 °F 35.2 °F -8.0 °F 12% 30.40 in 10.0 mi NNE 9.2 mph - N/A   Clear
8:55 PM - - - N/A% - - North - - N/A   Unknown
9:55 PM 32.0 °F 28.7 °F -4.0 °F 21% 30.42 in 10.0 mi NNW 3.5 mph - N/A   Clear
10:55 PM 30.9 °F - -2.9 °F 23% 30.40 in 10.0 mi Calm Calm - N/A   Unknown
11:55 PM 30.0 °F - -0.9 °F 27% 30.40 in 10.0 mi Calm Calm - N/A   Unknown